Tracking 30261 objects as of 18-Feb-2025
HD Live streaming from Space Station
objects crossing your sky now

STARLINK-5193

Track STARLINK-5193 now!
10-day predictions
STARLINK-5193 is classified as:


NORAD ID: 54095
Int'l Code: 2022-136AW
Perigee: 545.8 km
Apogee: 547.9 km
Inclination: 53.2 °
Period: 95.4 minutes
Semi major axis: 6917 km
RCS: Unknown
Launch date: October 20, 2022
Source: United States (US)
Launch site: AIR FORCE EASTERN TEST RANGE (AFETR)
Your satellite tracking list
Your tracking list is empty




NASA's NSSDC Master Catalog

Two Line Element Set (TLE):
1 54095U 22136AW  25048.86766395  .00001666  00000-0  12275-3 0  9995
2 54095  53.2164 261.3264 0001525  85.8059 274.3107 15.08837434128893
Source of the keplerian elements: AFSPC